Year,Month,Day,Hour,Minute,Value (Times are PST for temperature in C)
2016,09,14,00,00,12.60
2016,09,14,00,01,12.60
2016,09,14,00,02,12.60
2016,09,14,00,03,12.50
2016,09,14,00,04,12.50
2016,09,14,00,05,12.50
2016,09,14,00,06,12.50
2016,09,14,00,07,12.50
2016,09,14,00,08,12.50
2016,09,14,00,09,12.50
2016,09,14,00,10,12.50
2016,09,14,00,11,12.50
2016,09,14,00,12,12.40
2016,09,14,00,13,12.40
2016,09,14,00,14,12.40
2016,09,14,00,15,12.40
2016,09,14,00,16,12.40
2016,09,14,00,17,12.40
2016,09,14,00,18,12.40
2016,09,14,00,19,12.40
2016,09,14,00,20,12.30
2016,09,14,00,21,12.30
2016,09,14,00,22,12.30
2016,09,14,00,23,12.30
2016,09,14,00,24,12.30
2016,09,14,00,25,12.30
2016,09,14,00,26,12.30
2016,09,14,00,27,12.30
2016,09,14,00,28,12.30
2016,09,14,00,29,12.30
2016,09,14,00,30,12.30
2016,09,14,00,31,12.30
2016,09,14,00,32,12.30
2016,09,14,00,33,12.30
2016,09,14,00,34,12.30
2016,09,14,00,35,12.30
2016,09,14,00,36,12.30
2016,09,14,00,37,12.30
2016,09,14,00,38,12.30
2016,09,14,00,39,12.30
2016,09,14,00,40,12.20
2016,09,14,00,41,12.20
2016,09,14,00,42,12.20
2016,09,14,00,43,12.20
2016,09,14,00,44,12.20
2016,09,14,00,45,12.20
2016,09,14,00,46,12.20
2016,09,14,00,47,12.20
2016,09,14,00,48,12.20
2016,09,14,00,49,12.20
2016,09,14,00,50,12.20
2016,09,14,00,51,12.20
2016,09,14,00,52,12.20
2016,09,14,00,53,12.10
2016,09,14,00,54,12.10
2016,09,14,00,55,12.10
2016,09,14,00,56,12.10
2016,09,14,00,57,12.10
2016,09,14,00,58,12.10
2016,09,14,00,59,12.10
2016,09,14,01,00,12.10
2016,09,14,01,01,12.00
2016,09,14,01,02,12.00
2016,09,14,01,03,12.00
2016,09,14,01,04,12.00
2016,09,14,01,05,12.00
2016,09,14,01,06,12.00
2016,09,14,01,07,12.00
2016,09,14,01,08,12.00
2016,09,14,01,09,12.00
2016,09,14,01,10,12.00
2016,09,14,01,11,12.00
2016,09,14,01,12,11.90
2016,09,14,01,13,11.90
2016,09,14,01,14,11.90
2016,09,14,01,15,11.90
2016,09,14,01,16,11.90
2016,09,14,01,17,11.90
2016,09,14,01,18,11.90
2016,09,14,01,19,11.90
2016,09,14,01,20,11.90
2016,09,14,01,21,11.90
2016,09,14,01,22,11.90
2016,09,14,01,23,11.90
2016,09,14,01,24,11.80
2016,09,14,01,25,11.80
2016,09,14,01,26,11.80
2016,09,14,01,27,11.80
2016,09,14,01,28,11.80
2016,09,14,01,29,11.80
2016,09,14,01,30,11.80
2016,09,14,01,31,11.80
2016,09,14,01,32,11.80
2016,09,14,01,33,11.80
2016,09,14,01,34,11.80
2016,09,14,01,35,11.90
2016,09,14,01,36,11.90
2016,09,14,01,37,11.90
2016,09,14,01,38,11.90
2016,09,14,01,39,11.90
2016,09,14,01,40,11.90
2016,09,14,01,41,11.90
2016,09,14,01,42,11.90
2016,09,14,01,43,11.80
2016,09,14,01,44,11.80
2016,09,14,01,45,11.80
2016,09,14,01,46,11.80
2016,09,14,01,47,11.80
2016,09,14,01,48,11.80
2016,09,14,01,49,11.80
2016,09,14,01,50,11.80
2016,09,14,01,51,11.80
2016,09,14,01,52,11.80
2016,09,14,01,53,11.80
2016,09,14,01,54,11.80
2016,09,14,01,55,11.80
2016,09,14,01,56,11.80
2016,09,14,01,57,11.80
2016,09,14,01,58,11.80
2016,09,14,01,59,11.80
2016,09,14,02,00,11.80
2016,09,14,02,01,11.80
2016,09,14,02,02,11.80
2016,09,14,02,03,11.80
2016,09,14,02,04,11.80
2016,09,14,02,05,11.80
2016,09,14,02,06,11.80
2016,09,14,02,07,11.80
2016,09,14,02,08,11.80
2016,09,14,02,09,11.80
2016,09,14,02,10,11.80
2016,09,14,02,11,11.80
2016,09,14,02,12,11.80
2016,09,14,02,13,11.80
2016,09,14,02,14,11.80
2016,09,14,02,15,11.80
2016,09,14,02,16,11.80
2016,09,14,02,17,11.80
2016,09,14,02,18,11.80
2016,09,14,02,19,11.80
2016,09,14,02,20,11.80
2016,09,14,02,21,11.80
2016,09,14,02,22,11.80
2016,09,14,02,23,11.80
2016,09,14,02,24,11.80
2016,09,14,02,25,11.80
2016,09,14,02,26,11.80
2016,09,14,02,27,11.80
2016,09,14,02,28,11.80
2016,09,14,02,29,11.80
2016,09,14,02,30,11.80
2016,09,14,02,31,11.80
2016,09,14,02,32,11.80
2016,09,14,02,33,11.80
2016,09,14,02,34,11.80
2016,09,14,02,35,11.80
2016,09,14,02,36,11.80
2016,09,14,02,37,11.80
2016,09,14,02,38,11.80
2016,09,14,02,39,11.80
2016,09,14,02,40,11.70
2016,09,14,02,41,11.70
2016,09,14,02,42,11.70
2016,09,14,02,43,11.70
2016,09,14,02,44,11.60
2016,09,14,02,45,11.60
2016,09,14,02,46,11.60
2016,09,14,02,47,11.60
2016,09,14,02,48,11.60
2016,09,14,02,49,11.60
2016,09,14,02,50,11.60
2016,09,14,02,51,11.60
2016,09,14,02,52,11.60
2016,09,14,02,53,11.60
2016,09,14,02,54,11.60
2016,09,14,02,55,11.60
2016,09,14,02,56,11.40
2016,09,14,02,57,11.40
2016,09,14,02,58,11.40
2016,09,14,02,59,11.40
2016,09,14,03,00,11.40
2016,09,14,03,01,11.40
2016,09,14,03,02,11.40
2016,09,14,03,03,11.40
2016,09,14,03,04,11.40
2016,09,14,03,05,11.40
2016,09,14,03,06,11.40
2016,09,14,03,07,11.30
2016,09,14,03,08,11.30
2016,09,14,03,09,11.30
2016,09,14,03,10,11.30
2016,09,14,03,11,11.20
2016,09,14,03,12,11.20
2016,09,14,03,13,11.20
2016,09,14,03,14,11.20
2016,09,14,03,15,11.20
2016,09,14,03,16,11.20
2016,09,14,03,17,11.20
2016,09,14,03,18,11.20
2016,09,14,03,19,11.20
2016,09,14,03,20,11.20
2016,09,14,03,21,11.20
2016,09,14,03,22,11.20
2016,09,14,03,23,11.20
2016,09,14,03,24,11.20
2016,09,14,03,25,11.20
2016,09,14,03,26,11.10
2016,09,14,03,27,11.10
2016,09,14,03,28,11.10
2016,09,14,03,29,11.10
2016,09,14,03,30,11.10
2016,09,14,03,31,11.10
2016,09,14,03,32,11.10
2016,09,14,03,33,11.10
2016,09,14,03,34,11.10
2016,09,14,03,35,11.10
2016,09,14,03,36,11.10
2016,09,14,03,37,11.10
2016,09,14,03,38,11.10
2016,09,14,03,39,11.10
2016,09,14,03,40,11.10
2016,09,14,03,41,11.10
2016,09,14,03,42,11.10
2016,09,14,03,43,11.10
2016,09,14,03,44,11.10
2016,09,14,03,45,11.10
2016,09,14,03,46,11.00
2016,09,14,03,47,10.90
2016,09,14,03,48,10.90
2016,09,14,03,49,10.90
2016,09,14,03,50,10.90
2016,09,14,03,51,10.90
2016,09,14,03,52,10.90
2016,09,14,03,53,10.90
2016,09,14,03,54,10.90
2016,09,14,03,55,10.90
2016,09,14,03,56,10.90
2016,09,14,03,57,10.90
2016,09,14,03,58,10.90
2016,09,14,03,59,10.90
2016,09,14,04,00,10.90
2016,09,14,04,01,10.90
2016,09,14,04,02,10.90
2016,09,14,04,03,10.90
2016,09,14,04,04,10.90
2016,09,14,04,05,10.90
2016,09,14,04,06,10.90
2016,09,14,04,07,10.90
2016,09,14,04,08,10.90
2016,09,14,04,09,10.90
2016,09,14,04,10,10.90
2016,09,14,04,11,10.90
2016,09,14,04,12,10.90
2016,09,14,04,13,10.90
2016,09,14,04,14,10.90
2016,09,14,04,15,10.90
2016,09,14,04,16,10.90
2016,09,14,04,17,10.90
2016,09,14,04,18,10.90
2016,09,14,04,19,10.90
2016,09,14,04,20,10.90
2016,09,14,04,21,10.90
2016,09,14,04,22,10.90
2016,09,14,04,23,10.90
2016,09,14,04,24,10.90
2016,09,14,04,25,10.90
2016,09,14,04,26,10.90
2016,09,14,04,27,10.90
2016,09,14,04,28,10.90
2016,09,14,04,29,10.90
2016,09,14,04,30,10.90
2016,09,14,04,31,10.90
2016,09,14,04,32,10.90
2016,09,14,04,33,10.90
2016,09,14,04,34,10.90
2016,09,14,04,35,10.90
2016,09,14,04,36,10.90
2016,09,14,04,37,10.90
2016,09,14,04,38,10.90
2016,09,14,04,39,10.90
2016,09,14,04,40,10.90
2016,09,14,04,41,10.90
2016,09,14,04,42,10.90
2016,09,14,04,43,10.90
2016,09,14,04,44,10.90
2016,09,14,04,45,10.90
2016,09,14,04,46,10.90
2016,09,14,04,47,10.90
2016,09,14,04,48,10.90
2016,09,14,04,49,10.90
2016,09,14,04,50,10.90
2016,09,14,04,51,10.90
2016,09,14,04,52,10.90
2016,09,14,04,53,10.90
2016,09,14,04,54,10.90
2016,09,14,04,55,10.90
2016,09,14,04,56,10.90
2016,09,14,04,57,10.90
2016,09,14,04,58,10.90
2016,09,14,04,59,10.90
2016,09,14,05,00,10.90
2016,09,14,05,01,10.90
2016,09,14,05,02,10.90
2016,09,14,05,03,10.90
2016,09,14,05,04,10.90
2016,09,14,05,05,10.90
2016,09,14,05,06,10.90
2016,09,14,05,07,10.90
2016,09,14,05,08,10.90
2016,09,14,05,09,10.90
2016,09,14,05,10,10.90
2016,09,14,05,11,10.90
2016,09,14,05,12,10.90
2016,09,14,05,13,10.90
2016,09,14,05,14,10.90
2016,09,14,05,15,10.90
2016,09,14,05,16,10.90
2016,09,14,05,17,10.90
2016,09,14,05,18,10.90
2016,09,14,05,19,10.90
2016,09,14,05,20,10.90
2016,09,14,05,21,10.90
2016,09,14,05,22,10.90
2016,09,14,05,23,10.90
2016,09,14,05,24,10.90
2016,09,14,05,25,10.90
2016,09,14,05,26,10.90
2016,09,14,05,27,10.90
2016,09,14,05,28,10.90
2016,09,14,05,29,10.90
2016,09,14,05,30,10.90
2016,09,14,05,31,10.90
2016,09,14,05,32,10.90
2016,09,14,05,33,10.90
2016,09,14,05,34,10.90
2016,09,14,05,35,10.90
2016,09,14,05,36,10.90
2016,09,14,05,37,10.90
2016,09,14,05,38,10.90
2016,09,14,05,39,10.90
2016,09,14,05,40,10.90
2016,09,14,05,41,10.90
2016,09,14,05,42,10.90
2016,09,14,05,43,10.90
2016,09,14,05,44,10.90
2016,09,14,05,45,10.90
2016,09,14,05,46,10.90
2016,09,14,05,47,10.90
2016,09,14,05,48,10.80
2016,09,14,05,49,10.80
2016,09,14,05,50,10.80
2016,09,14,05,51,10.80
2016,09,14,05,52,10.70
2016,09,14,05,53,10.70
2016,09,14,05,54,10.70
2016,09,14,05,55,10.70
2016,09,14,05,56,10.70
2016,09,14,05,57,10.70
2016,09,14,05,58,10.70
2016,09,14,05,59,10.70
2016,09,14,06,00,10.70
2016,09,14,06,01,10.70
2016,09,14,06,02,10.70
2016,09,14,06,03,10.70
2016,09,14,06,04,10.70
2016,09,14,06,05,10.70
2016,09,14,06,06,10.70
2016,09,14,06,07,10.60
2016,09,14,06,08,10.60
2016,09,14,06,09,10.60
2016,09,14,06,10,10.60
2016,09,14,06,11,10.60
2016,09,14,06,12,10.60
2016,09,14,06,13,10.60
2016,09,14,06,14,10.60
2016,09,14,06,15,10.60
2016,09,14,06,16,10.50
2016,09,14,06,17,10.40
2016,09,14,06,18,10.40
2016,09,14,06,19,10.40
2016,09,14,06,20,10.40
2016,09,14,06,21,10.40
2016,09,14,06,22,10.40
2016,09,14,06,23,10.40
2016,09,14,06,24,10.40
2016,09,14,06,25,10.40
2016,09,14,06,26,10.40
2016,09,14,06,27,10.40
2016,09,14,06,28,10.40
2016,09,14,06,29,10.50
2016,09,14,06,30,10.60
2016,09,14,06,31,10.60
2016,09,14,06,32,10.60
2016,09,14,06,33,10.60
2016,09,14,06,34,10.60
2016,09,14,06,35,10.60
2016,09,14,06,36,10.60
2016,09,14,06,37,10.60
2016,09,14,06,38,10.60
2016,09,14,06,39,10.60
2016,09,14,06,40,10.60
2016,09,14,06,41,10.70
2016,09,14,06,42,10.70
2016,09,14,06,43,10.70
2016,09,14,06,44,10.70
2016,09,14,06,45,10.70
2016,09,14,06,46,10.70
2016,09,14,06,47,10.70
2016,09,14,06,48,10.70
2016,09,14,06,49,10.70
2016,09,14,06,50,10.70
2016,09,14,06,51,10.70
2016,09,14,06,52,10.70
2016,09,14,06,53,10.70
2016,09,14,06,54,10.80
2016,09,14,06,55,10.80
2016,09,14,06,56,10.80
2016,09,14,06,57,10.80
2016,09,14,06,58,10.80
2016,09,14,06,59,10.80
2016,09,14,07,00,10.80
2016,09,14,07,01,10.80
2016,09,14,07,02,10.80
2016,09,14,07,03,10.80
2016,09,14,07,04,10.80
2016,09,14,07,05,10.80
2016,09,14,07,06,10.80
2016,09,14,07,07,10.80
2016,09,14,07,08,10.80
2016,09,14,07,09,10.80
2016,09,14,07,10,10.70
2016,09,14,07,11,10.70
2016,09,14,07,12,10.70
2016,09,14,07,13,10.70
2016,09,14,07,14,10.80
2016,09,14,07,15,10.80
2016,09,14,07,16,10.80
2016,09,14,07,17,10.80
2016,09,14,07,18,10.80
2016,09,14,07,19,10.80
2016,09,14,07,20,10.80
2016,09,14,07,21,10.90
2016,09,14,07,22,10.90
2016,09,14,07,23,10.90
2016,09,14,07,24,10.90
2016,09,14,07,25,10.90
2016,09,14,07,26,10.90
2016,09,14,07,27,10.90
2016,09,14,07,28,10.90
2016,09,14,07,29,10.90
2016,09,14,07,30,10.90
2016,09,14,07,31,11.10
2016,09,14,07,32,11.10
2016,09,14,07,33,11.10
2016,09,14,07,34,11.10
2016,09,14,07,35,11.10
2016,09,14,07,36,11.10
2016,09,14,07,37,11.10
2016,09,14,07,38,11.10
2016,09,14,07,39,11.10
2016,09,14,07,40,11.10
2016,09,14,07,41,11.10
2016,09,14,07,42,11.10
2016,09,14,07,43,11.20
2016,09,14,07,44,11.20
2016,09,14,07,45,11.20
2016,09,14,07,46,11.20
2016,09,14,07,47,11.20
2016,09,14,07,48,11.30
2016,09,14,07,49,11.30
2016,09,14,07,50,11.30
2016,09,14,07,51,11.30
2016,09,14,07,52,11.40
2016,09,14,07,53,11.40
2016,09,14,07,54,11.40
2016,09,14,07,55,11.40
2016,09,14,07,56,11.40
2016,09,14,07,57,11.40
2016,09,14,07,58,11.40
2016,09,14,07,59,11.40
2016,09,14,08,00,11.40
2016,09,14,08,01,11.40
2016,09,14,08,02,11.40
2016,09,14,08,03,11.50
2016,09,14,08,04,11.60
2016,09,14,08,05,11.60
2016,09,14,08,06,11.60
2016,09,14,08,07,11.60
2016,09,14,08,08,11.60
2016,09,14,08,09,11.60
2016,09,14,08,10,11.60
2016,09,14,08,11,11.70
2016,09,14,08,12,11.70
2016,09,14,08,13,11.70
2016,09,14,08,14,11.70
2016,09,14,08,15,11.80
2016,09,14,08,16,11.80
2016,09,14,08,17,11.80
2016,09,14,08,18,11.80
2016,09,14,08,19,11.90
2016,09,14,08,20,11.90
2016,09,14,08,21,12.00
2016,09,14,08,22,12.00
2016,09,14,08,23,12.10
2016,09,14,08,24,12.20
2016,09,14,08,25,12.30
2016,09,14,08,26,12.30
2016,09,14,08,27,12.40
2016,09,14,08,28,12.50
2016,09,14,08,29,12.70
2016,09,14,08,30,12.90
2016,09,14,08,31,13.00
2016,09,14,08,32,13.20
2016,09,14,08,33,13.30
2016,09,14,08,34,13.50
2016,09,14,08,35,13.60
2016,09,14,08,36,13.70
2016,09,14,08,37,13.90
2016,09,14,08,38,14.10
2016,09,14,08,39,14.20
2016,09,14,08,40,14.40
2016,09,14,08,41,14.60
2016,09,14,08,42,14.70
2016,09,14,08,43,14.90
2016,09,14,08,44,15.00
2016,09,14,08,45,15.10
2016,09,14,08,46,15.20
2016,09,14,08,47,15.30
2016,09,14,08,48,15.40
2016,09,14,08,49,15.50
2016,09,14,08,50,15.60
2016,09,14,08,51,15.70
2016,09,14,08,52,15.80
2016,09,14,08,53,16.00
2016,09,14,08,54,16.10
2016,09,14,08,55,16.20
2016,09,14,08,56,16.30
2016,09,14,08,57,16.40
2016,09,14,08,58,16.40
2016,09,14,08,59,16.40
2016,09,14,09,00,16.40
2016,09,14,09,01,16.40
2016,09,14,09,02,16.40
2016,09,14,09,03,16.40
2016,09,14,09,04,16.40
2016,09,14,09,05,16.30
2016,09,14,09,06,16.30
2016,09,14,09,07,16.40
2016,09,14,09,08,16.40
2016,09,14,09,09,16.40
2016,09,14,09,10,16.40
2016,09,14,09,11,16.50
2016,09,14,09,12,16.60
2016,09,14,09,13,16.70
2016,09,14,09,14,16.70
2016,09,14,09,15,16.80
2016,09,14,09,16,16.90
2016,09,14,09,17,17.00
2016,09,14,09,18,17.00
2016,09,14,09,19,17.10
2016,09,14,09,20,17.20
2016,09,14,09,21,17.30
2016,09,14,09,22,17.30
2016,09,14,09,23,17.40
2016,09,14,09,24,17.50
2016,09,14,09,25,17.50
2016,09,14,09,26,17.60
2016,09,14,09,27,17.60
2016,09,14,09,28,17.60
2016,09,14,09,29,17.60
2016,09,14,09,30,17.60
2016,09,14,09,31,17.50
2016,09,14,09,32,17.60
2016,09,14,09,33,17.60
2016,09,14,09,34,17.60
2016,09,14,09,35,17.70
2016,09,14,09,36,17.70
2016,09,14,09,37,17.70
2016,09,14,09,38,17.60
2016,09,14,09,39,17.50
2016,09,14,09,40,17.50
2016,09,14,09,41,17.40
2016,09,14,09,42,17.40
2016,09,14,09,43,17.40
2016,09,14,09,44,17.40
2016,09,14,09,45,17.40
2016,09,14,09,46,17.40
2016,09,14,09,47,17.40
2016,09,14,09,48,17.30
2016,09,14,09,49,17.30
2016,09,14,09,50,17.30
2016,09,14,09,51,17.40
2016,09,14,09,52,17.40
2016,09,14,09,53,17.40
2016,09,14,09,54,17.40
2016,09,14,09,55,17.40
2016,09,14,09,56,17.50
2016,09,14,09,57,17.50
2016,09,14,09,58,17.60
2016,09,14,09,59,17.60
2016,09,14,10,00,17.60
2016,09,14,10,01,17.50
2016,09,14,10,02,17.50
2016,09,14,10,03,17.50
2016,09,14,10,04,17.50
2016,09,14,10,05,17.50
2016,09,14,10,06,17.40
2016,09,14,10,07,17.40
2016,09,14,10,08,17.30
2016,09,14,10,09,17.30
2016,09,14,10,10,17.30
2016,09,14,10,11,17.30
2016,09,14,10,12,17.30
2016,09,14,10,13,17.30
2016,09,14,10,14,17.20
2016,09,14,10,15,17.20
2016,09,14,10,16,17.20
2016,09,14,10,17,17.10
2016,09,14,10,18,17.10
2016,09,14,10,19,17.10
2016,09,14,10,20,17.00
2016,09,14,10,21,17.00
2016,09,14,10,22,17.00
2016,09,14,10,23,17.00
2016,09,14,10,24,17.00
2016,09,14,10,25,17.00
2016,09,14,10,26,17.00
2016,09,14,10,27,17.10
2016,09,14,10,28,17.10
2016,09,14,10,29,17.10
2016,09,14,10,30,17.20
2016,09,14,10,31,17.30
2016,09,14,10,32,17.40
2016,09,14,10,33,17.50
2016,09,14,10,34,17.70
2016,09,14,10,35,17.80
2016,09,14,10,36,17.90
2016,09,14,10,37,17.90
2016,09,14,10,38,17.90
2016,09,14,10,39,17.90
2016,09,14,10,40,17.90
2016,09,14,10,41,17.90
2016,09,14,10,42,17.90
2016,09,14,10,43,17.90
2016,09,14,10,44,18.00
2016,09,14,10,45,18.10
2016,09,14,10,46,18.10
2016,09,14,10,47,18.10
2016,09,14,10,48,18.20
2016,09,14,10,49,18.30
2016,09,14,10,50,18.40
2016,09,14,10,51,18.50
2016,09,14,10,52,18.60
2016,09,14,10,53,18.60
2016,09,14,10,54,18.60
2016,09,14,10,55,18.50
2016,09,14,10,56,18.60
2016,09,14,10,57,18.60
2016,09,14,10,58,18.70
2016,09,14,10,59,18.70
2016,09,14,11,00,18.70
2016,09,14,11,01,18.70
2016,09,14,11,02,18.70
2016,09,14,11,03,18.60
2016,09,14,11,04,18.50
2016,09,14,11,05,18.50
2016,09,14,11,06,18.30
2016,09,14,11,07,18.30
2016,09,14,11,08,18.20
2016,09,14,11,09,18.20
2016,09,14,11,10,18.10
2016,09,14,11,11,18.00
2016,09,14,11,12,17.90
2016,09,14,11,13,17.90
2016,09,14,11,14,17.90
2016,09,14,11,15,17.90
2016,09,14,11,16,17.90
2016,09,14,11,17,18.00
2016,09,14,11,18,18.10
2016,09,14,11,19,18.00
2016,09,14,11,20,18.00
2016,09,14,11,21,18.10
2016,09,14,11,22,18.10
2016,09,14,11,23,18.20
2016,09,14,11,24,18.30
2016,09,14,11,25,18.40
2016,09,14,11,26,18.50
2016,09,14,11,27,18.60
2016,09,14,11,28,18.70
2016,09,14,11,29,18.70
2016,09,14,11,30,18.70
2016,09,14,11,31,18.60
2016,09,14,11,32,18.60
2016,09,14,11,33,18.60
2016,09,14,11,34,18.70
2016,09,14,11,35,18.70
2016,09,14,11,36,18.60
2016,09,14,11,37,18.60
2016,09,14,11,38,18.60
2016,09,14,11,39,18.60
2016,09,14,11,40,18.60
2016,09,14,11,41,18.60
2016,09,14,11,42,18.60
2016,09,14,11,43,18.60
2016,09,14,11,44,18.50
2016,09,14,11,45,18.50
2016,09,14,11,46,18.60
2016,09,14,11,47,18.60
2016,09,14,11,48,18.60
2016,09,14,11,49,18.60
2016,09,14,11,50,18.60
2016,09,14,11,51,18.60
2016,09,14,11,52,18.50
2016,09,14,11,53,18.30
2016,09,14,11,54,18.20
2016,09,14,11,55,18.20
2016,09,14,11,56,18.30
2016,09,14,11,57,18.30
2016,09,14,11,58,18.30
2016,09,14,11,59,18.40
2016,09,14,12,00,18.20
2016,09,14,12,01,18.10
2016,09,14,12,02,17.80
2016,09,14,12,03,17.70
2016,09,14,12,04,17.60
2016,09,14,12,05,17.60
2016,09,14,12,06,17.60
2016,09,14,12,07,17.50
2016,09,14,12,08,17.50
2016,09,14,12,09,17.50
2016,09,14,12,10,17.60
2016,09,14,12,11,17.70
2016,09,14,12,12,17.80
2016,09,14,12,13,17.90
2016,09,14,12,14,17.90
2016,09,14,12,15,17.90
2016,09,14,12,16,18.00
2016,09,14,12,17,18.10
2016,09,14,12,18,18.20
2016,09,14,12,19,18.20
2016,09,14,12,20,18.20
2016,09,14,12,21,18.10
2016,09,14,12,22,18.00
2016,09,14,12,23,17.90
2016,09,14,12,24,18.00
2016,09,14,12,25,18.10
2016,09,14,12,26,18.20
2016,09,14,12,27,18.20
2016,09,14,12,28,18.30
2016,09,14,12,29,18.30
2016,09,14,12,30,18.30
2016,09,14,12,31,18.40
2016,09,14,12,32,18.30
2016,09,14,12,33,18.20
2016,09,14,12,34,18.30
2016,09,14,12,35,18.40
2016,09,14,12,36,18.50
2016,09,14,12,37,18.50
2016,09,14,12,38,18.40
2016,09,14,12,39,18.30
2016,09,14,12,40,18.20
2016,09,14,12,41,18.10
2016,09,14,12,42,18.10
2016,09,14,12,43,18.10
2016,09,14,12,44,18.20
2016,09,14,12,45,18.20
2016,09,14,12,46,18.20
2016,09,14,12,47,18.20
2016,09,14,12,48,18.20
2016,09,14,12,49,18.20
2016,09,14,12,50,18.10
2016,09,14,12,51,18.00
2016,09,14,12,52,17.90
2016,09,14,12,53,17.90
2016,09,14,12,54,18.00
2016,09,14,12,55,18.00
2016,09,14,12,56,17.90
2016,09,14,12,57,17.80
2016,09,14,12,58,17.80
2016,09,14,12,59,17.80
2016,09,14,13,00,17.80
2016,09,14,13,01,17.80
2016,09,14,13,02,17.70
2016,09,14,13,03,17.60
2016,09,14,13,04,17.50
2016,09,14,13,05,17.40
2016,09,14,13,06,17.30
2016,09,14,13,07,17.30
2016,09,14,13,08,17.30
2016,09,14,13,09,17.30
2016,09,14,13,10,17.30
2016,09,14,13,11,17.30
2016,09,14,13,12,17.30
2016,09,14,13,13,17.30
2016,09,14,13,14,17.30
2016,09,14,13,15,17.40
2016,09,14,13,16,17.40
2016,09,14,13,17,17.40
2016,09,14,13,18,17.40
2016,09,14,13,19,17.40
2016,09,14,13,20,17.50
2016,09,14,13,21,17.60
2016,09,14,13,22,17.70
2016,09,14,13,23,17.80
2016,09,14,13,24,17.90
2016,09,14,13,25,17.90
2016,09,14,13,26,18.00
2016,09,14,13,27,18.10
2016,09,14,13,28,18.10
2016,09,14,13,29,17.90
2016,09,14,13,30,17.90
2016,09,14,13,31,17.90
2016,09,14,13,32,18.00
2016,09,14,13,33,18.10
2016,09,14,13,34,18.00
2016,09,14,13,35,18.10
2016,09,14,13,36,18.10
2016,09,14,13,37,18.10
2016,09,14,13,38,18.20
2016,09,14,13,39,18.20
2016,09,14,13,40,18.40
2016,09,14,13,41,18.50
2016,09,14,13,42,18.60
2016,09,14,13,43,18.70
2016,09,14,13,44,18.70
2016,09,14,13,45,18.70
2016,09,14,13,46,18.60
2016,09,14,13,47,18.60
2016,09,14,13,48,18.50
2016,09,14,13,49,18.40
2016,09,14,13,50,18.40
2016,09,14,13,51,18.40
2016,09,14,13,52,18.30
2016,09,14,13,53,18.30
2016,09,14,13,54,18.40
2016,09,14,13,55,18.40
2016,09,14,13,56,18.40
2016,09,14,13,57,18.30
2016,09,14,13,58,18.30
2016,09,14,13,59,18.20
2016,09,14,14,00,18.20
2016,09,14,14,01,18.20
2016,09,14,14,02,18.20
2016,09,14,14,03,18.30
2016,09,14,14,04,18.30
2016,09,14,14,05,18.30
2016,09,14,14,06,18.20
2016,09,14,14,07,18.20
2016,09,14,14,08,18.20
2016,09,14,14,09,18.20
2016,09,14,14,10,18.20
2016,09,14,14,11,18.20
2016,09,14,14,12,18.10
2016,09,14,14,13,18.10
2016,09,14,14,14,18.10
2016,09,14,14,15,18.20
2016,09,14,14,16,18.20
2016,09,14,14,17,18.10
2016,09,14,14,18,18.10
2016,09,14,14,19,18.20
2016,09,14,14,20,18.20
2016,09,14,14,21,18.20
2016,09,14,14,22,18.20
2016,09,14,14,23,18.30
2016,09,14,14,24,18.30
2016,09,14,14,25,18.20
2016,09,14,14,26,18.20
2016,09,14,14,27,18.30
2016,09,14,14,28,18.30
2016,09,14,14,29,18.20
2016,09,14,14,30,18.20
2016,09,14,14,31,18.10
2016,09,14,14,32,17.90
2016,09,14,14,33,17.90
2016,09,14,14,34,17.90
2016,09,14,14,35,17.90
2016,09,14,14,36,17.90
2016,09,14,14,37,17.80
2016,09,14,14,38,17.80
2016,09,14,14,39,17.80
2016,09,14,14,40,17.90
2016,09,14,14,41,17.90
2016,09,14,14,42,17.90
2016,09,14,14,43,17.90
2016,09,14,14,44,18.10
2016,09,14,14,45,18.10
2016,09,14,14,46,18.00
2016,09,14,14,47,17.90
2016,09,14,14,48,17.90
2016,09,14,14,49,17.90
2016,09,14,14,50,17.90
2016,09,14,14,51,17.90
2016,09,14,14,52,17.70
2016,09,14,14,53,17.60
2016,09,14,14,54,17.50
2016,09,14,14,55,17.50
2016,09,14,14,56,17.50
2016,09,14,14,57,17.50
2016,09,14,14,58,17.60
2016,09,14,14,59,17.80
2016,09,14,15,00,17.80
2016,09,14,15,01,17.90
2016,09,14,15,02,18.10
2016,09,14,15,03,18.20
2016,09,14,15,04,18.20
2016,09,14,15,05,18.20
2016,09,14,15,06,18.20
2016,09,14,15,07,18.20
2016,09,14,15,08,18.20
2016,09,14,15,09,18.30
2016,09,14,15,10,18.40
2016,09,14,15,11,18.40
2016,09,14,15,12,18.50
2016,09,14,15,13,18.50
2016,09,14,15,14,18.60
2016,09,14,15,15,18.70
2016,09,14,15,16,18.70
2016,09,14,15,17,18.70
2016,09,14,15,18,18.70
2016,09,14,15,19,18.80
2016,09,14,15,20,18.90
2016,09,14,15,21,18.80
2016,09,14,15,22,18.80
2016,09,14,15,23,18.70
2016,09,14,15,24,18.70
2016,09,14,15,25,18.70
2016,09,14,15,26,18.70
2016,09,14,15,27,18.70
2016,09,14,15,28,18.60
2016,09,14,15,29,18.50
2016,09,14,15,30,18.50
2016,09,14,15,31,18.40
2016,09,14,15,32,18.50
2016,09,14,15,33,18.60
2016,09,14,15,34,18.60
2016,09,14,15,35,18.60
2016,09,14,15,36,18.50
2016,09,14,15,37,18.50
2016,09,14,15,38,18.50
2016,09,14,15,39,18.50
2016,09,14,15,40,18.50
2016,09,14,15,41,18.50
2016,09,14,15,42,18.50
2016,09,14,15,43,18.60
2016,09,14,15,44,18.60
2016,09,14,15,45,18.50
2016,09,14,15,46,18.50
2016,09,14,15,47,18.60
2016,09,14,15,48,18.60
2016,09,14,15,49,18.60
2016,09,14,15,50,18.60
2016,09,14,15,51,18.60
2016,09,14,15,52,18.60
2016,09,14,15,53,18.60
2016,09,14,15,54,18.50
2016,09,14,15,55,18.50
2016,09,14,15,56,18.50
2016,09,14,15,57,18.60
2016,09,14,15,58,18.60
2016,09,14,15,59,18.70
2016,09,14,16,00,18.70
2016,09,14,16,01,18.80
2016,09,14,16,02,18.90
2016,09,14,16,03,19.00
2016,09,14,16,04,19.10
2016,09,14,16,05,19.20
2016,09,14,16,06,19.40
2016,09,14,16,07,19.50
2016,09,14,16,08,19.60
2016,09,14,16,09,19.70
2016,09,14,16,10,19.80
2016,09,14,16,11,19.80
2016,09,14,16,12,19.90
2016,09,14,16,13,19.90
2016,09,14,16,14,19.80
2016,09,14,16,15,19.70
2016,09,14,16,16,19.70
2016,09,14,16,17,19.60
2016,09,14,16,18,19.60
2016,09,14,16,19,19.60
2016,09,14,16,20,19.60
2016,09,14,16,21,19.70
2016,09,14,16,22,19.70
2016,09,14,16,23,19.70
2016,09,14,16,24,19.80
2016,09,14,16,25,19.90
2016,09,14,16,26,20.00
2016,09,14,16,27,20.20
2016,09,14,16,28,20.30
2016,09,14,16,29,20.50
2016,09,14,16,30,20.60
2016,09,14,16,31,20.80
2016,09,14,16,32,20.90
2016,09,14,16,33,21.00
2016,09,14,16,34,21.10
2016,09,14,16,35,21.20
2016,09,14,16,36,21.30
2016,09,14,16,37,21.30
2016,09,14,16,38,21.30
2016,09,14,16,39,21.30
2016,09,14,16,40,21.30
2016,09,14,16,41,21.30
2016,09,14,16,42,21.30
2016,09,14,16,43,21.30
2016,09,14,16,44,21.30
2016,09,14,16,45,21.30
2016,09,14,16,46,21.30
2016,09,14,16,47,21.30
2016,09,14,16,48,21.20
2016,09,14,16,49,21.00
2016,09,14,16,50,20.90
2016,09,14,16,51,20.80
2016,09,14,16,52,20.70
2016,09,14,16,53,20.60
2016,09,14,16,54,20.50
2016,09,14,16,55,20.40
2016,09,14,16,56,20.30
2016,09,14,16,57,20.30
2016,09,14,16,58,20.30
2016,09,14,16,59,20.30
2016,09,14,17,00,20.30
2016,09,14,17,01,20.30
2016,09,14,17,02,20.40
2016,09,14,17,03,20.30
2016,09,14,17,04,20.30
2016,09,14,17,05,20.30
2016,09,14,17,06,20.30
2016,09,14,17,07,20.40
2016,09,14,17,08,20.40
2016,09,14,17,09,20.30
2016,09,14,17,10,20.20
2016,09,14,17,11,20.10
2016,09,14,17,12,20.00
2016,09,14,17,13,19.90
2016,09,14,17,14,19.90
2016,09,14,17,15,19.90
2016,09,14,17,16,19.80
2016,09,14,17,17,19.80
2016,09,14,17,18,19.80
2016,09,14,17,19,19.70